Regional Weather Roundup
Issued by NWS

Home | Current Version | Previous Version | Text Only | Print | Product List | Glossary On
Versions: 1 2 3 4 5 6 7 8 9 10 11 12 13 14 15 16 17 18 19 20 21 22 23 24 25 26 27 28 29 30 31 32 33 34 35 36 37 38 39 40 41 42 43 44 45 46 47 48 49 50
818
ASUS44 KJAN 272203
RWRMS

MISSISSIPPI HOURLY WEATHER ROUNDUP
NATIONAL WEATHER SERVICE JACKSON MS
500 PM CDT SUN JUL 27 2014

NOTE: "FAIR: INDICATES FEW OR NO CLOUDS BELOW 12,000 FEET WITH NO
SIGNIFICANT WEATHER AND/OR OBSTRUCTIONS TO VISIBILITY.

MSZ001>002-007>008-010>013-018>021-025>028-034>036-272300-
NORTHWEST MISSISSIPPI

CITY           SKY/WX    TMP DP  RH WIND       PRES   REMARKS
CLARKSDALE     FAIR      91  81  70 SW10      29.95F HX 110
CLEVELAND      FAIR      92  80  67 SW8       29.96F HX 109
GREENWOOD      PTSUNNY   91  76  61 SW8       29.97F HX 103
GREENVILLE     MOSUNNY   94  74  52 W8        29.97F HX 104
GRENADA        FAIR      91  75  59 SW8       29.97F HX 102
OLIVE BRANCH   PTSUNNY   90  82  79 SW14G20   29.94S HX 111
OXFORD         FAIR      90  75  62 SW9       29.97F HX 100
TUNICA         MOCLDY    91  77  62 SW10      29.95S HX 105
$$

MSZ003>006-009-014>017-022>024-029>033-037>039-272300-
NORTHEAST MISSISSIPPI

CITY           SKY/WX    TMP DP  RH WIND       PRES   REMARKS
BELMONT        FAIR      88  76  69 SW7G18    29.96S HX  99
COLUMBUS AFB   PTSUNNY   92  74  56 W9        29.97F HX 102
CORINTH        FAIR      88  75  66 SW6       29.93S HX  97
GOLDN TRIANGLE MOSUNNY   91  73  55 W5        29.98F HX 100
STARKVILLE     FAIR      91  72  52 W7        29.98S HX  98
TUPELO         PTSUNNY   91  76  61 W9G20     29.94F HX 103
$$

MSZ040-058-272300-
CENTRAL MISSISSIPPI

CITY           SKY/WX    TMP DP  RH WIND       PRES   REMARKS
JACKSON INTL   PTSUNNY   90  73  57 SW9       30.00F HX  98
JACKSON HAWKNS MOSUNNY   91  71  51 W9        30.01F HX  97
MERIDIAN KEY   MOSUNNY   92  73  53 W7        29.99F HX 100
MERIDIAN NAS   CLOUDY    93  71  48 W8        29.99S HX 100
RAYMOND        FAIR      91  86  84 SW10      30.01F HX 122
VICKSBURG      SUNNY     92  74  55 VRB5      29.99F HX 101
$$

MSZ059>079-272300-
SOUTH MISSISSIPPI

CITY           SKY/WX    TMP DP  RH WIND       PRES   REMARKS
BROOKHAVEN     FAIR      91  75  59 W6        30.04F HX 102
COLUMBIA       FAIR      93  75  55 VRB6G13   30.00F HX 104
HATTIESBURG    MOSUNNY   94  74  52 SW12      30.01F HX 104
MCCOMB         MOSUNNY   91  73  55 SW10      30.03F HX  99
NATCHEZ        SUNNY     91  73  55 SW8       30.03F HX 100
PINE BELT      MOSUNNY   91  73  55 W6        30.03F HX 100
$$

MSZ080>082-272300-
COASTAL MISSISSIPPI

CITY           SKY/WX    TMP DP  RH WIND       PRES   REMARKS
BAY ST LOUIS   MOSUNNY  N/A N/A N/A W6        30.02F
BILOXI         SUNNY     91  75  60 SW14      30.02S HX 101
PASCAGOULA     SUNNY     90  74  59 S10       30.02S HX  99
GULFPORT       MOSUNNY   95  73  48 SW8       30.01F HX 104
$$



USA.gov is the U.S. government's official web portal to all federal, state and local government web resources and services.